Ketchikan, AK

7:38 AM AKST on November 15, 2018 (GMT -0900)
Ketchikan International

Weather History for PAKT - October, 2017

Change the Weather History Date:

Tuesday, October 10, 2017

  Actual Average Record
Temperature  
Mean Temperature 44 °F -  
Max Temperature 50 °F 53 °F 66 °F (1963)
Min Temperature 37 °F 40 °F 26 °F (1972)
Degree Days  
Heating Degree Days 22    
Moisture  
Dew Point 39 °F    
Average Humidity 84    
Maximum Humidity 100    
Minimum Humidity 66    
Precipitation  
Precipitation 0.00 in - - ()
Sea Level Pressure  
Sea Level Pressure 30.10 in    
Wind  
Wind Speed 8 mph (NW)    
Max Wind Speed 14 mph    
Max Gust Speed 18 mph    
Visibility 10 miles    
Events      
Averages and records for this station are not official NWS values.
T = Trace of Precipitation, MM = Missing Value Source: NWS Daily Summary

Daily Weather History Graph

Daily Weather History Graph

Search for Another Location

Airport or City:

Astronomy

Oct. 10, 2017 Rise Set
Actual Time 7:07 AM AKDT 5:58 PM AKDT
Civil Twilight 6:31 AM AKDT 6:35 PM AKDT
Nautical Twilight 5:48 AM AKDT 7:17 PM AKDT
Astronomical Twilight 5:05 AM AKDT 8:00 PM AKDT
Moon 9:30 PM AKDT (10/10) 1:09 PM AKDT (10/10)
Length of Visible Light 12h 03m
Length of Day
10h 50m
Waning Gibbous, 69% of the Moon is Illuminated
Oct 10
Waning Gibbous
Oct 12
Last Quarter
Oct 19
New
Oct 27
First Quarter
Nov 3
Full

Hourly Weather History & Observations

Time (AKDT) Temp. Windchill Dew Point Humidity Pressure Visibility Wind Dir Wind Speed Gust Speed Precip Events Conditions
12:53 AM 37.9 °F 33.5 °F 37.9 °F 100% 30.08 in 10.0 mi NW 5.8 mph - N/A   Clear
1:53 AM 39.0 °F 34.8 °F 37.9 °F 96% 30.09 in 10.0 mi NW 5.8 mph - N/A   Clear
2:53 AM 39.9 °F 35.1 °F 39.0 °F 97% 30.09 in 10.0 mi NW 6.9 mph - N/A   Clear
3:18 AM 41.0 °F 37.1 °F 39.9 °F 96% 30.08 in 10.0 mi NW 5.8 mph - N/A   Partly Cloudy
3:53 AM 41.0 °F 37.1 °F 39.0 °F 93% 30.09 in 10.0 mi NW 5.8 mph - N/A   Partly Cloudy
4:53 AM 42.1 °F 38.4 °F 39.9 °F 92% 30.09 in 10.0 mi WNW 5.8 mph - N/A   Scattered Clouds
5:00 AM 42.1 °F 39.2 °F 39.9 °F 92% 30.08 in 10.0 mi NW 4.6 mph - N/A   Mostly Cloudy
5:53 AM 41.0 °F 37.1 °F 39.0 °F 93% 30.09 in 10.0 mi WNW 5.8 mph - N/A   Mostly Cloudy
6:08 AM 41.0 °F 36.4 °F 39.0 °F 93% 30.08 in 10.0 mi WNW 6.9 mph - N/A   Scattered Clouds
6:09 AM 42.1 °F 37.1 °F 39.0 °F 89% 30.08 in 10.0 mi WNW 8.1 mph - N/A   Scattered Clouds
6:53 AM 42.8 °F 37.0 °F 39.2 °F 87% 30.09 in 10.0 mi WNW 10.4 mph - N/A   Scattered Clouds
7:53 AM 42.8 °F 37.0 °F 39.2 °F 87% 30.10 in 10.0 mi WNW 10.4 mph 17.3 mph N/A   Scattered Clouds
8:53 AM 44.6 °F 38.1 °F 39.2 °F 81% 30.11 in 10.0 mi NW 13.8 mph - N/A   Scattered Clouds
9:53 AM 44.6 °F 38.8 °F 39.2 °F 81% 30.11 in 10.0 mi NW 11.5 mph - N/A   Scattered Clouds
10:53 AM 46.4 °F 40.4 °F 39.2 °F 76% 30.11 in 10.0 mi NNW 13.8 mph - N/A   Scattered Clouds
11:53 AM 48.2 °F - 39.2 °F 71% 30.11 in 10.0 mi NW 12.7 mph 18.4 mph N/A   Partly Cloudy
12:53 PM 50.0 °F - 39.2 °F 66% 30.10 in 10.0 mi NW 11.5 mph - N/A   Clear
1:53 PM 50.0 °F - 39.9 °F 68% 30.10 in 10.0 mi WNW 8.1 mph - N/A   Partly Cloudy
2:53 PM 50.0 °F - 39.9 °F 68% 30.09 in 10.0 mi WNW 8.1 mph - N/A   Partly Cloudy
3:53 PM 48.0 °F - 39.9 °F 74% 30.09 in 10.0 mi WNW 9.2 mph 17.3 mph N/A   Partly Cloudy
4:53 PM 48.0 °F - 39.9 °F 74% 30.10 in 10.0 mi WNW 8.1 mph - N/A   Partly Cloudy
5:53 PM 46.9 °F - 39.9 °F 77% 30.10 in 10.0 mi WNW 10.4 mph - N/A   Clear
6:53 PM 46.0 °F 41.9 °F 39.9 °F 79% 30.11 in 10.0 mi NW 8.1 mph - N/A   Clear
7:53 PM 46.0 °F 41.0 °F 39.9 °F 79% 30.11 in 10.0 mi WNW 10.4 mph - N/A   Clear
8:53 PM 46.0 °F 41.9 °F 39.0 °F 76% 30.10 in 10.0 mi NW 8.1 mph - N/A   Clear
9:53 PM 43.0 °F 38.2 °F 39.9 °F 89% 30.11 in 10.0 mi NW 8.1 mph - N/A   Clear
10:53 PM 43.0 °F 38.2 °F 39.9 °F 89% 30.11 in 10.0 mi NW 8.1 mph - N/A   Clear
11:53 PM 42.1 °F 37.1 °F 39.0 °F 89% 30.11 in 10.0 mi NW 8.1 mph - N/A   Clear